Regional Weather Roundup
Issued by NWS

Home | Current Version | Previous Version | Graphics & Text | Print | Product List | Glossary On
Versions: 1 2 3 4 5 6 7 8 9 10 11 12 13 14 15 16 17 18 19 20 21 22 23 24 25 26 27 28 29 30 31 32 33 34 35 36 37 38 39 40 41 42 43 44 45 46 47 48 49 50
000
ASUS43 KDTX 041801
RWRMI
MICHIGAN HOURLY REGIONAL WEATHER ROUNDUP
NATIONAL WEATHER SERVICE DETROIT/PONTIAC MI
100 PM EST WED MAR 04 2015

NOTE: "FAIR" INDICATES FEW OR NO CLOUDS BELOW 12,000 FEET WITH NO
SIGNIFICANT WEATHER AND/OR OBSTRUCTION TO VISIBILITY.

MIZ047>049-052>055-059>063-066>070-074>076-081>083-041900-
SOUTHEAST LOWER MICHIGAN

CITY           SKY/WX    TMP DP  RH WIND       PRES   REMARKS
ADRIAN         CLOUDY    32  20  61 NW13      29.98R WCI  22
6HR MIN TEMP:  30; 6HR MAX TEMP:  33;

ALMA           SUNNY     26  12  55 W14G22    29.98R WCI  15
ANN ARBOR      PTSUNNY   32  19  58 W17       29.95R WCI  21
BAD AXE        FLURRIES  26  17  68 W10G17    29.92S WCI  17
CARO           PTSUNNY   30  20  65 W7        29.93R WCI  23
DETROIT CITY   MOSUNNY   36  18  48 W9        29.94S WCI  29
6HR MIN TEMP:  32; 6HR MAX TEMP:  36;

DETROIT        CLOUDY    34  18  52 W13G21    29.96S WCI  25
6HR MIN TEMP:  31; 6HR MAX TEMP:  35;

FLINT          MOSUNNY   30  16  56 W15       29.96R WCI  19
6HR MIN TEMP:  29; 6HR MAX TEMP:  31;

GROSSE ILE     CLOUDY    36  19  51 W9        29.94R WCI  29
HILLSDALE      PTSUNNY   30  20  66 W13G18    29.97R WCI  20
6HR MIN TEMP:  30; 6HR MAX TEMP:  32;

HOWELL         MOSUNNY   29  14  54 W17G24    29.95R WCI  17

CITY           SKY/WX    TMP DP  RH WIND       PRES   REMARKS
JACKSON        PTSUNNY   28  16  60 W15       29.97R WCI  16
6HR MIN TEMP:  28; 6HR MAX TEMP:  30;

LAMBERTVILLE   CLOUDY    34  21  60 W10G16    29.97S WCI  26
LANSING        MOSUNNY   27  13  55 W16       29.98R WCI  15
6HR MIN TEMP:  26; 6HR MAX TEMP:  29;

LAPEER         FAIR      30  10  44 W16G25    29.93R WCI  18
MASON          PTSUNNY   29  14  52 W12G18    29.96R WCI  20
MONROE         CLOUDY    34  21  60 W10       29.95S WCI  26
MT. CLEMENS    CLOUDY    34  18  53 W13       29.91S WCI  25
6HR MIN TEMP:  30; 6HR MAX TEMP:  35;

PONTIAC        CLOUDY    31  17  56 W17       29.92R WCI  19
6HR MIN TEMP:  28; 6HR MAX TEMP:  31;

PORT HOPE        N/A     28  13  53 W13G20    29.90R WCI  17
6HR MIN TEMP:  24; 6HR MAX TEMP:  28;

PORT HURON     PTSUNNY   32  18  55 W12G18    29.92R WCI  23
TRI CITIES     PTSUNNY   28  15  58 W17       29.95R WCI  16
6HR MIN TEMP:  23; 6HR MAX TEMP:  29;

TROY           PTSUNNY   36  18  48 W15       29.95S WCI  26
SAGINAW HB     MOSUNNY   30  18  59 W16       29.95R WCI  19
$$
MIZ043>046-050>051-056>058-064>065-071>073-077>080-041900-
SOUTHWEST LOWER MICHIGAN

CITY           SKY/WX    TMP DP  RH WIND       PRES   REMARKS
BATTLE CREEK   PTSUNNY   28  15  58 NW16      30.01R WCI  16
6HR MIN TEMP:  27; 6HR MAX TEMP:  30;

BENTON HARBOR  PTSUNNY   21  12  68 NW10G23   30.09R WCI  10
6HR MIN TEMP:  21; 6HR MAX TEMP:  28;

BIG RAPIDS     CLOUDY    23   9  55 W15G23    29.98R WCI  10
6HR MIN TEMP:  20; 6HR MAX TEMP:  23;

COLDWATER      PTSUNNY   27  17  64 W14G21    30.01R WCI  16
6HR MIN TEMP:  27; 6HR MAX TEMP:  30;

FREMONT        MOCLDY    21   9  60 W16G22    30.03R WCI   7
HOLLAND        FLURRIES  21  10  62 W15G23    30.08R WCI   8
6HR MIN TEMP:  21; 6HR MAX TEMP:  26; 6HR PCP: TRACE;

GRAND RAPIDS   PTSUNNY   24  11  57 W18       30.02R WCI  10
6HR MIN TEMP:  23; 6HR MAX TEMP:  26;

IONIA          FAIR      28  15  58 NW16      29.97R WCI  15
KALAMAZOO      PTSUNNY   25  15  66 NW17      30.04R WCI  12
6HR MIN TEMP:  25; 6HR MAX TEMP:  30;

LUDINGTON      CLOUDY    18   8  63 W14G23    30.07R WCI   4
6HR MIN TEMP:  18; 6HR MAX TEMP:  22;

MARSHALL       CLOUDY    28  16  59 W12       29.99R WCI  18
MOUNT PLEASANT SUNNY     26  11  52 W12       29.96R WCI  16
6HR MIN TEMP:  23; 6HR MAX TEMP:  27;

MUSKEGON       FLURRIES  19   8  62 NW20G29   30.07R WCI   3
6HR MIN TEMP:  19; 6HR MAX TEMP:  24; 6HR PCP: TRACE;

SOUTH HAVEN    CLOUDY    23  13  66 NW13G20   30.09R WCI  11
$$
MIZ016>042-041900-
NORTHERN LOWER MICHIGAN

CITY           SKY/WX    TMP DP  RH WIND       PRES   REMARKS
ALPENA         CLOUDY    21   9  59 W9G17     29.91R WCI  11
6HR MIN TEMP:  17; 6HR MAX TEMP:  22; 6HR PCP: TRACE;

BEAVER ISLAND  MOSUNNY   14   1  55 W13       29.98R HAZE    WCI   0
6HR MIN TEMP:  10; 6HR MAX TEMP:  14;

BELLAIRE       CLOUDY    15   6  66 W8        30.00R HAZE    WCI   5
6HR MIN TEMP:  15; 6HR MAX TEMP:  19;

CADILLAC       PTSUNNY   15   4  60 NW15G23   29.93R WCI   0
CHARLEVOIX     CLOUDY    13   3  63 W12G18    30.02R WCI  -1
FRANKFORT      PTSUNNY   15   6  66 W12G17    30.04R WCI   2
GAYLORD        MOSUNNY   13   2  61 W12G21    29.90R WCI  -1
6HR MIN TEMP:  12; 6HR MAX TEMP:  14; 6HR PCP: TRACE;

GRAYLING       PTSUNNY   17   7  64 NW8G17    29.93R WCI   6
HARBOR SPRINGS CLOUDY    13   5  68 SW10G16   29.97R HAZE    WCI   0
HOUGHTON LAKE  PTSUNNY   19   5  54 W15       29.92R WCI   5
6HR MIN TEMP:  17; 6HR MAX TEMP:  20; 6HR PCP: TRACE;

MANISTEE       CLOUDY    16   1  53 NW16      30.05R WCI   0
OSCODA         CLOUDY    25  13  61 NW14      29.90S WCI  13
PELLSTON       PTSUNNY   13   0  56 NW17      29.96R WCI  -4
6HR MIN TEMP:  12; 6HR MAX TEMP:  14;

ROGERS CITY    CLOUDY    18   6  59 W15       29.94R WCI   3
TRAVERSE CITY  FLURRIES  16   5  62 W16       30.00R WCI   1
6HR MIN TEMP:  16; 6HR MAX TEMP:  21; 6HR PCP: TRACE;

$$
MIZ007>008-015-041900-
EASTERN UPPER MICHIGAN

CITY           SKY/WX    TMP DP  RH WIND       PRES   REMARKS
KINROSS        CLOUDY    10   3  72 NW15G21   29.91S WCI  -6
6HR MIN TEMP:  10; 6HR MAX TEMP:  14;

MACKINAC ISLAN PTSUNNY   15   3  58 W18       29.93R WCI  -2
6HR MIN TEMP:  11; 6HR MAX TEMP:  16;

NEWBERRY       CLOUDY     9   0  69 NW14G20   29.94R HAZE    WCI  -8
S. S. MARIE    PTSUNNY    9  -1  64 NW17G25   29.92F WCI  -9
6HR MIN TEMP:   7; 6HR MAX TEMP:  10; 6HR PCP: TRACE;

MUNISING         N/A     11   3  70 N16G24    29.99R WCI  -6
6HR MIN TEMP:   9; 6HR MAX TEMP:  12;

$$
MIZ004>006-011>014-085-041900-
CENTRAL UPPER MICHIGAN

CITY           SKY/WX    TMP DP  RH WIND       PRES   REMARKS
MANISTIQUE     CLOUDY    12   2  64 NW6       29.98R WCI   3
6HR MIN TEMP:   9; 6HR MAX TEMP:  15;

ESCANABA       PTSUNNY   12  -6  44 W9G24     30.02R WCI   0
6HR MIN TEMP:   7; 6HR MAX TEMP:  12;

MENOMINEE      SUNNY     12  -8  40 W7G16     30.05R WCI   2
6HR MIN TEMP:   9; 6HR MAX TEMP:  12;

SAWYER-GWINN   PTSUNNY    7  -6  56 NW17      29.94R WCI -12
$$
MIZ001>003-009>011-084-041900-
WESTERN UPPER MICHIGAN

CITY           SKY/WX    TMP DP  RH WIND       PRES   REMARKS
IRON MOUNTAIN  SUNNY      9  -8  46 W16G25    29.98R WCI  -8
6HR MIN TEMP:   2; 6HR MAX TEMP:   9;

HOUGHTON       LGT SNOW   2  -6  69 NW28G33   29.97R VSB 3/4 WCI -22
6HR MIN TEMP:   0; 6HR MAX TEMP:   2; 6HR PCP: TRACE;

COPPER HARBOR    N/A      2  -8  63 N15G29    30.00R WCI -17
6HR MIN TEMP:   1; 6HR MAX TEMP:   4;

IRONWOOD       PTSUNNY    1 N/A N/A W16G22    30.03R WCI -18
6HR MIN TEMP:  -4; 6HR MAX TEMP:   1;

$$

ABBREVIATIONS USED IN REMARKS
   TC - TEMPERATURE IN CELSIUS
  WCI - WIND CHILL INDEX
   HX - HEAT INDEX
  VSB - VISIBILITY



USA.gov is the U.S. government's official web portal to all federal, state and local government web resources and services.